Location: Moonridge Observatory
(39.2268°N, 77.7914°W)
Time: 12:30:50
(UTC-04:00)

CZ-2C R/B - Visible Passes

Search period start: 02 October 2014 00:00
Search period end: 12 October 2014 00:00
Orbit: 706 x 909 km, 98.1° (Epoch: 01 October)

Date Brightness Start Highest point End Pass type
(mag) Time Alt. Az. Time Alt. Az. Time Alt. Az.
02 Oct 6.1 02:42:24 12° NE 02:42:24 12° NE 02:43:12 10° NNE visible
02 Oct 5.2 04:23:31 19° NNW 04:23:31 19° NNW 04:25:00 10° NNW visible
03 Oct 5.3 03:58:57 19° N 03:58:57 19° N 04:00:30 10° N visible
04 Oct 5.6 03:34:23 17° N 03:34:23 17° N 03:35:47 10° N visible
05 Oct 5.9 03:09:49 14° NNE 03:09:49 14° NNE 03:10:49 10° NNE visible
05 Oct 5.5 04:50:55 12° NNW 04:50:55 12° NNW 04:51:18 10° NNW visible
06 Oct 6.2 02:45:16 11° NNE 02:45:16 11° NNE 02:45:26 10° NNE visible
06 Oct 5.5 04:26:22 13° NNW 04:26:22 13° NNW 04:27:01 10° NNW visible
07 Oct 5.6 04:01:49 14° N 04:01:49 14° N 04:02:32 10° N visible
08 Oct 5.8 03:37:16 13° N 03:37:16 13° N 03:37:50 10° N visible
09 Oct 6.1 03:12:44 11° NNE 03:12:44 11° NNE 03:12:54 10° N visible
